EWG72F LEMG-EDDL

Flight info

Callsign EWG72F
Flight time 2h 34m
Altitude 36000
Route BLN N865 VTB DCT RBO DCT OSTIX DCT GASMO DCT DGO L176 LUSEM DCT LULUT DCT ADABI DCT BOKNO DCT DIBES DCT VIQAQ DCT TSU DCT OQQAL DCT RANUX/N0436F370 DCT VALEK DCT LUTAX DCT DIK/N0371F230 N853 ARCKY T853 NVO T857 BIKMU BIKMU1A
Aircraft A320/M-SDE3FGHIRWY/LB1

Departure

Time 2026-05-05 02:04
Airport Málaga-Costa del Sol Airport (LEMG)

Arrival

Time 2026-05-05 04:39
Airport Düsseldorf Airport (EDDL)
Time Latitude Longitude Altitude Speed Heading
2026-05-05 01:22 36.67832 -4.49426 42 ft 0 kts 214°
2026-05-05 01:51 36.67839 -4.49420 68 ft 3 kts 214°
2026-05-05 01:51 36.67857 -4.49405 36 ft 2 kts 214°
2026-05-05 01:51 36.67874 -4.49392 40 ft 3 kts 214°
2026-05-05 01:52 36.67889 -4.49373 39 ft 3 kts 260°
2026-05-05 01:52 36.67892 -4.49385 40 ft 3 kts 291°
2026-05-05 01:52 36.67907 -4.49406 41 ft 3 kts 314°
2026-05-05 01:52 36.67917 -4.49419 42 ft 0 kts 311°
2026-05-05 01:56 36.67919 -4.49422 42 ft 2 kts 311°
2026-05-05 01:56 36.67939 -4.49451 42 ft 6 kts 311°
2026-05-05 01:56 36.67971 -4.49496 42 ft 8 kts 311°
2026-05-05 01:56 36.68013 -4.49556 42 ft 10 kts 309°
2026-05-05 01:57 36.67999 -4.49631 41 ft 11 kts 223°
2026-05-05 01:57 36.67935 -4.49701 42 ft 13 kts 223°
2026-05-05 01:57 36.67861 -4.49784 42 ft 15 kts 222°
2026-05-05 01:57 36.67788 -4.49860 42 ft 11 kts 202°
2026-05-05 01:58 36.67739 -4.49877 41 ft 6 kts 213°
2026-05-05 01:58 36.67697 -4.49891 43 ft 8 kts 169°
2026-05-05 01:58 36.67646 -4.49832 43 ft 12 kts 131°
2026-05-05 01:58 36.67580 -4.49741 43 ft 15 kts 131°
2026-05-05 01:59 36.67516 -4.49648 43 ft 15 kts 131°
2026-05-05 01:59 36.67434 -4.49535 42 ft 20 kts 132°
2026-05-05 01:59 36.67338 -4.49399 42 ft 21 kts 130°
2026-05-05 01:59 36.67246 -4.49269 42 ft 19 kts 132°
2026-05-05 02:00 36.67153 -4.49142 41 ft 21 kts 131°
2026-05-05 02:00 36.67055 -4.49002 42 ft 22 kts 132°
2026-05-05 02:00 36.66949 -4.48856 40 ft 23 kts 131°
2026-05-05 02:00 36.66840 -4.48703 36 ft 20 kts 131°
2026-05-05 02:01 36.66754 -4.48582 35 ft 17 kts 130°
2026-05-05 02:01 36.66702 -4.48509 34 ft 9 kts 132°
2026-05-05 02:01 36.66655 -4.48486 35 ft 6 kts 191°
2026-05-05 02:01 36.66631 -4.48502 35 ft 0 kts 218°
2026-05-05 02:02 36.66626 -4.48507 36 ft 3 kts 218°
2026-05-05 02:03 36.66596 -4.48539 38 ft 7 kts 221°
2026-05-05 02:03 36.66565 -4.48581 39 ft 9 kts 245°
2026-05-05 02:03 36.66593 -4.48654 39 ft 11 kts 307°
2026-05-05 02:03 36.66741 -4.48862 42 ft 66 kts 311°
2026-05-05 02:04 36.67189 -4.49490 47 ft 126 kts 311°
2026-05-05 02:04 36.67879 -4.50458 100 ft 167 kts 311°
2026-05-05 02:04 36.68644 -4.51537 680 ft 168 kts 310°
2026-05-05 02:04 36.69408 -4.52657 1317 ft 173 kts 310°
2026-05-05 02:05 36.70219 -4.53868 1653 ft 192 kts 310°
2026-05-05 02:05 36.71109 -4.55255 1963 ft 215 kts 309°
2026-05-05 02:05 36.72035 -4.56687 2867 ft 210 kts 310°
2026-05-05 02:05 36.72992 -4.58055 3697 ft 210 kts 321°
2026-05-05 02:06 36.74278 -4.58908 4378 ft 213 kts 342°
2026-05-05 02:06 36.75717 -4.59437 5055 ft 218 kts 343°
2026-05-05 02:06 36.77189 -4.59966 5731 ft 222 kts 342°
2026-05-05 02:06 36.78669 -4.60497 6378 ft 227 kts 342°
2026-05-05 02:07 36.80222 -4.60964 6985 ft 233 kts 354°
2026-05-05 02:07 36.81846 -4.60721 7604 ft 242 kts 17°
2026-05-05 02:07 36.83348 -4.59584 7990 ft 264 kts 40°
2026-05-05 02:07 36.84738 -4.58026 8629 ft 272 kts 39°
2026-05-05 02:08 36.86165 -4.56440 9338 ft 278 kts 38°
2026-05-05 02:08 36.87624 -4.54827 10046 ft 283 kts 38°
2026-05-05 02:08 36.89111 -4.53188 10673 ft 287 kts 37°
2026-05-05 02:08 36.90619 -4.51525 11343 ft 291 kts 37°
2026-05-05 02:09 36.92149 -4.49840 12011 ft 295 kts 37°
2026-05-05 02:09 36.93678 -4.48153 12662 ft 299 kts 37°
2026-05-05 02:09 36.95251 -4.46419 13315 ft 304 kts 37°
2026-05-05 02:09 36.96846 -4.44660 13955 ft 308 kts 37°
2026-05-05 02:10 36.98506 -4.42950 14498 ft 310 kts 29°
2026-05-05 02:10 37.00377 -4.41437 14660 ft 331 kts 27°
2026-05-05 02:10 37.02387 -4.39856 14794 ft 351 kts 27°
2026-05-05 02:10 37.04518 -4.38189 14921 ft 371 kts 28°
2026-05-05 02:11 37.06746 -4.36438 15250 ft 383 kts 28°
2026-05-05 02:11 37.09015 -4.34639 15777 ft 388 kts 28°
2026-05-05 02:11 37.11303 -4.32812 16335 ft 393 kts 28°
2026-05-05 02:11 37.13587 -4.30984 16897 ft 396 kts 28°
2026-05-05 02:12 37.15953 -4.29091 17467 ft 400 kts 28°
2026-05-05 02:12 37.20668 -4.25326 18535 ft 408 kts 28°
2026-05-05 02:12 37.23072 -4.23403 19001 ft 412 kts 28°
2026-05-05 02:13 37.25499 -4.21459 19487 ft 415 kts 28°
2026-05-05 02:13 37.27945 -4.19500 19968 ft 419 kts 28°
2026-05-05 02:13 37.30409 -4.17527 20458 ft 422 kts 28°
2026-05-05 02:13 37.32897 -4.15534 20947 ft 426 kts 28°
2026-05-05 02:14 37.35403 -4.13528 21437 ft 429 kts 28°
2026-05-05 02:14 37.37929 -4.11505 21910 ft 433 kts 28°
2026-05-05 02:14 37.40481 -4.09459 22371 ft 436 kts 28°
2026-05-05 02:14 37.43052 -4.07395 22775 ft 441 kts 28°
2026-05-05 02:15 37.45608 -4.05335 23243 ft 444 kts 28°
2026-05-05 02:15 37.48217 -4.03230 23676 ft 447 kts 28°
2026-05-05 02:15 37.50840 -4.01114 24045 ft 450 kts 28°
2026-05-05 02:15 37.53486 -3.98978 24414 ft 453 kts 28°
2026-05-05 02:16 37.56149 -3.96831 24767 ft 456 kts 28°
2026-05-05 02:16 37.58827 -3.94668 25112 ft 459 kts 28°
2026-05-05 02:16 37.61522 -3.92487 25434 ft 462 kts 28°
2026-05-05 02:16 37.64232 -3.90293 25769 ft 464 kts 27°
2026-05-05 02:17 37.66956 -3.88087 26104 ft 467 kts 27°
2026-05-05 02:17 37.69698 -3.85864 26426 ft 470 kts 27°
2026-05-05 02:17 37.72454 -3.83630 26760 ft 472 kts 27°
2026-05-05 02:17 37.75191 -3.81414 27067 ft 475 kts 27°
2026-05-05 02:18 37.77978 -3.79152 27371 ft 477 kts 27°
2026-05-05 02:18 37.80778 -3.76876 27668 ft 480 kts 26°
2026-05-05 02:18 37.83686 -3.74835 27954 ft 476 kts 18°
2026-05-05 02:18 37.86752 -3.73351 28246 ft 470 kts
2026-05-05 02:19 37.89891 -3.72161 28532 ft 472 kts
2026-05-05 02:19 37.93041 -3.70968 28820 ft 474 kts
2026-05-05 02:19 37.96203 -3.69770 29098 ft 476 kts
2026-05-05 02:19 37.99389 -3.68558 29354 ft 479 kts
2026-05-05 02:20 38.02584 -3.67340 29616 ft 481 kts
2026-05-05 02:20 38.05798 -3.66114 29874 ft 483 kts
2026-05-05 02:20 38.08982 -3.64892 30121 ft 485 kts
2026-05-05 02:20 38.12217 -3.63650 30340 ft 487 kts
2026-05-05 02:21 38.15486 -3.62607 30544 ft 481 kts
2026-05-05 02:21 38.18780 -3.62122 30752 ft 475 kts 355°
2026-05-05 02:21 38.22077 -3.61810 31007 ft 475 kts 355°
2026-05-05 02:21 38.25367 -3.61496 31316 ft 474 kts 355°
2026-05-05 02:22 38.28650 -3.61181 31624 ft 473 kts 355°
2026-05-05 02:22 38.31928 -3.60866 31933 ft 472 kts 355°
2026-05-05 02:22 38.35194 -3.60551 32250 ft 471 kts 355°
2026-05-05 02:22 38.38457 -3.60234 32563 ft 470 kts 355°
2026-05-05 02:23 38.41717 -3.59916 32856 ft 469 kts 355°
2026-05-05 02:23 38.44963 -3.59600 33166 ft 468 kts 354°
2026-05-05 02:23 38.48163 -3.59289 33450 ft 467 kts 354°
2026-05-05 02:23 38.51401 -3.58973 33735 ft 466 kts 354°
2026-05-05 02:24 38.54624 -3.58660 34022 ft 465 kts 354°
2026-05-05 02:24 38.57851 -3.58345 34282 ft 464 kts 354°
2026-05-05 02:24 38.61065 -3.58030 34514 ft 464 kts 354°
2026-05-05 02:24 38.64283 -3.57712 34744 ft 463 kts 355°
2026-05-05 02:25 38.67495 -3.57395 34964 ft 463 kts 355°
2026-05-05 02:25 38.70700 -3.57085 35170 ft 462 kts 355°
2026-05-05 02:25 38.73911 -3.56776 35367 ft 462 kts 355°
2026-05-05 02:25 38.77118 -3.56467 35562 ft 462 kts 355°
2026-05-05 02:26 38.80323 -3.56157 35744 ft 462 kts 355°
2026-05-05 02:26 38.83528 -3.55843 35934 ft 462 kts 355°
2026-05-05 02:26 38.86687 -3.55531 36015 ft 461 kts 355°
2026-05-05 02:27 38.93080 -3.54895 36021 ft 460 kts 355°
2026-05-05 02:27 38.99457 -3.54266 36023 ft 460 kts 355°
2026-05-05 02:28 39.05836 -3.53642 36022 ft 460 kts 355°
2026-05-05 02:28 39.12216 -3.53011 36023 ft 460 kts 355°
2026-05-05 02:29 39.18603 -3.52374 36028 ft 460 kts 356°
2026-05-05 02:29 39.24980 -3.51734 36030 ft 460 kts 356°
2026-05-05 02:30 39.31323 -3.51093 36035 ft 460 kts 356°
2026-05-05 02:30 39.37704 -3.50448 36034 ft 460 kts 356°
2026-05-05 02:31 39.44094 -3.49816 36038 ft 460 kts 356°
2026-05-05 02:31 39.50486 -3.49181 36032 ft 461 kts 356°
2026-05-05 02:32 39.56877 -3.48536 36033 ft 461 kts 356°
2026-05-05 02:32 39.63232 -3.47891 36032 ft 461 kts 356°
2026-05-05 02:33 39.69639 -3.47244 36031 ft 461 kts 355°
2026-05-05 02:33 39.76033 -3.46608 36032 ft 461 kts 355°
2026-05-05 02:34 39.82449 -3.45759 36028 ft 466 kts 359°
2026-05-05 02:34 39.88874 -3.44409 36029 ft 469 kts
2026-05-05 02:35 39.95303 -3.42958 36027 ft 468 kts
2026-05-05 02:35 40.01690 -3.41630 36026 ft 468 kts 360°
2026-05-05 02:36 40.08126 -3.40365 36026 ft 468 kts 360°
2026-05-05 02:36 40.14567 -3.39100 36012 ft 468 kts 360°
2026-05-05 02:37 40.21016 -3.37810 36016 ft 469 kts
2026-05-05 02:37 40.27471 -3.36492 36016 ft 469 kts
2026-05-05 02:38 40.33879 -3.35186 36010 ft 469 kts
2026-05-05 02:38 40.40336 -3.33879 36011 ft 470 kts
2026-05-05 02:39 40.46801 -3.32570 36015 ft 470 kts
2026-05-05 02:39 40.53272 -3.31243 36014 ft 471 kts
2026-05-05 02:40 40.59744 -3.29915 36010 ft 471 kts
2026-05-05 02:40 40.66172 -3.28606 36007 ft 471 kts
2026-05-05 02:41 40.72661 -3.27283 36010 ft 472 kts
2026-05-05 02:41 40.79156 -3.25947 36017 ft 472 kts
2026-05-05 02:42 40.85648 -3.24612 36025 ft 473 kts
2026-05-05 02:42 40.92146 -3.23207 36033 ft 474 kts
2026-05-05 02:43 40.98604 -3.21733 36023 ft 474 kts
2026-05-05 02:43 41.05108 -3.20247 36034 ft 474 kts
2026-05-05 02:44 41.11620 -3.18782 36035 ft 475 kts
2026-05-05 02:44 41.18142 -3.17324 36044 ft 476 kts
2026-05-05 02:45 41.24617 -3.15860 36048 ft 475 kts
2026-05-05 02:45 41.31138 -3.14381 36047 ft 475 kts
2026-05-05 02:46 41.37663 -3.12898 36046 ft 475 kts
2026-05-05 02:46 41.44183 -3.11420 36049 ft 475 kts
2026-05-05 02:47 41.50658 -3.09949 36054 ft 476 kts
2026-05-05 02:47 41.57186 -3.08469 36055 ft 476 kts
2026-05-05 02:48 41.63719 -3.06995 36055 ft 476 kts
2026-05-05 02:48 41.70253 -3.05502 36062 ft 476 kts
2026-05-05 02:49 41.76789 -3.04012 36061 ft 477 kts
2026-05-05 02:49 41.83327 -3.02511 36056 ft 476 kts
2026-05-05 02:50 41.89815 -3.01006 36055 ft 476 kts
2026-05-05 02:50 41.96339 -2.99493 36056 ft 476 kts
2026-05-05 02:51 42.02856 -2.97986 36052 ft 475 kts
2026-05-05 02:51 42.09369 -2.96484 36051 ft 475 kts
2026-05-05 02:52 42.15830 -2.94978 36049 ft 474 kts
2026-05-05 02:52 42.22331 -2.93460 36046 ft 474 kts
2026-05-05 02:53 42.28821 -2.91944 36048 ft 473 kts
2026-05-05 02:53 42.35309 -2.90421 36049 ft 473 kts
2026-05-05 02:54 42.41739 -2.88739 36050 ft 477 kts 13°
2026-05-05 02:54 42.47763 -2.84879 36048 ft 485 kts 33°
2026-05-05 02:55 42.52928 -2.78957 36047 ft 487 kts 39°
2026-05-05 02:55 42.57990 -2.72846 36040 ft 487 kts 40°
2026-05-05 02:56 42.63010 -2.66763 36033 ft 487 kts 40°
2026-05-05 02:56 42.68060 -2.60641 36026 ft 486 kts 40°
2026-05-05 02:57 42.73104 -2.54523 36021 ft 486 kts 40°
2026-05-05 02:57 42.78144 -2.48403 36019 ft 485 kts 40°
2026-05-05 02:58 42.83172 -2.42271 36020 ft 485 kts 40°
2026-05-05 02:58 42.88161 -2.36169 36023 ft 485 kts 40°
2026-05-05 02:59 42.93184 -2.30020 36031 ft 485 kts 40°
2026-05-05 02:59 42.98196 -2.23864 36030 ft 485 kts 40°
2026-05-05 03:00 43.03206 -2.17692 36027 ft 485 kts 41°
2026-05-05 03:00 43.08176 -2.11542 36020 ft 485 kts 41°
2026-05-05 03:01 43.13180 -2.05343 36024 ft 485 kts 41°
2026-05-05 03:01 43.18192 -1.99145 36033 ft 486 kts 41°
2026-05-05 03:02 43.23204 -1.92932 36034 ft 486 kts 41°
2026-05-05 03:02 43.28169 -1.86736 36035 ft 485 kts 41°
2026-05-05 03:03 43.33509 -1.81150 36037 ft 482 kts 27°
2026-05-05 03:03 43.39324 -1.76550 36035 ft 483 kts 30°
2026-05-05 03:04 43.44974 -1.71536 36034 ft 483 kts 32°
2026-05-05 03:04 43.50536 -1.66330 36011 ft 484 kts 33°
2026-05-05 03:05 43.56088 -1.61203 36013 ft 483 kts 32°
2026-05-05 03:05 43.61704 -1.56113 36009 ft 483 kts 32°
2026-05-05 03:06 43.67322 -1.51036 36005 ft 482 kts 32°
2026-05-05 03:06 43.72925 -1.45940 36010 ft 482 kts 32°
2026-05-05 03:07 43.78485 -1.40851 36005 ft 482 kts 32°
2026-05-05 03:07 43.84075 -1.35733 36007 ft 481 kts 32°
2026-05-05 03:08 43.89658 -1.30606 36009 ft 481 kts 32°
2026-05-05 03:08 43.95231 -1.25469 36006 ft 481 kts 32°
2026-05-05 03:09 44.00764 -1.20363 36004 ft 480 kts 33°
2026-05-05 03:09 44.06324 -1.15233 36004 ft 480 kts 33°
2026-05-05 03:10 44.11876 -1.10093 36002 ft 479 kts 33°
2026-05-05 03:10 44.17417 -1.04949 35993 ft 479 kts 33°
2026-05-05 03:11 44.22962 -0.99797 35995 ft 478 kts 33°
2026-05-05 03:11 44.28454 -0.94670 35995 ft 478 kts 33°
2026-05-05 03:12 44.33978 -0.89497 35990 ft 478 kts 33°
2026-05-05 03:12 44.39526 -0.84387 35985 ft 477 kts 28°
2026-05-05 03:13 44.45545 -0.80511 35984 ft 476 kts 22°
2026-05-05 03:13 44.51577 -0.76836 35986 ft 476 kts 22°
2026-05-05 03:14 44.57635 -0.73134 35984 ft 475 kts 22°
2026-05-05 03:14 44.63704 -0.69418 35987 ft 475 kts 23°
2026-05-05 03:15 44.69758 -0.65703 35982 ft 475 kts 23°
2026-05-05 03:15 44.75814 -0.61977 35982 ft 475 kts 23°
2026-05-05 03:16 44.81823 -0.58278 35982 ft 474 kts 23°
2026-05-05 03:16 44.87870 -0.54548 35980 ft 474 kts 23°
2026-05-05 03:17 44.93908 -0.50798 35979 ft 474 kts 24°
2026-05-05 03:17 44.99942 -0.47036 35970 ft 474 kts 24°
2026-05-05 03:18 45.05932 -0.43306 35966 ft 474 kts 24°
2026-05-05 03:18 45.11965 -0.39547 35963 ft 474 kts 24°
2026-05-05 03:19 45.21004 -0.33896 35956 ft 473 kts 24°
2026-05-05 03:19 45.26010 -0.30757 35955 ft 473 kts 24°
2026-05-05 03:20 45.33048 -0.26331 35950 ft 473 kts 24°
2026-05-05 03:20 45.39029 -0.22553 35948 ft 473 kts 24°
2026-05-05 03:21 45.44028 -0.19395 35944 ft 473 kts 24°
2026-05-05 03:21 45.50050 -0.15595 35944 ft 473 kts 25°
2026-05-05 03:22 45.56064 -0.11773 35942 ft 473 kts 25°
2026-05-05 03:22 45.62079 -0.07941 35937 ft 473 kts 25°
2026-05-05 03:23 45.68057 -0.04135 35935 ft 473 kts 25°
2026-05-05 03:23 45.74071 -0.00293 35934 ft 474 kts 25°
2026-05-05 03:24 45.80088 0.03555 35936 ft 474 kts 25°
2026-05-05 03:24 45.86105 0.07424 35934 ft 474 kts 25°
2026-05-05 03:25 45.92075 0.11269 35933 ft 474 kts 25°
2026-05-05 03:25 45.98085 0.15149 35927 ft 474 kts 25°
2026-05-05 03:26 46.04095 0.19040 35924 ft 473 kts 25°
2026-05-05 03:26 46.10099 0.22942 35924 ft 473 kts 25°
2026-05-05 03:27 46.16105 0.26849 35917 ft 473 kts 25°
2026-05-05 03:27 46.22062 0.30713 35919 ft 473 kts 25°
2026-05-05 03:28 46.28063 0.34620 35908 ft 473 kts 25°
2026-05-05 03:28 46.34054 0.38544 35900 ft 472 kts 26°
2026-05-05 03:29 46.40037 0.42484 35894 ft 472 kts 26°
2026-05-05 03:29 46.45977 0.46396 35890 ft 472 kts 26°
2026-05-05 03:30 46.51955 0.50337 35889 ft 472 kts 26°
2026-05-05 03:30 46.58082 0.53737 35887 ft 473 kts 13°
2026-05-05 03:31 46.64456 0.55813 35887 ft 473 kts 13°
2026-05-05 03:31 46.70866 0.57918 35887 ft 472 kts 13°
2026-05-05 03:32 46.77276 0.60045 35887 ft 472 kts 13°
2026-05-05 03:32 46.83685 0.62173 35886 ft 472 kts 13°
2026-05-05 03:33 46.90054 0.64294 35883 ft 472 kts 13°
2026-05-05 03:33 46.96465 0.66423 35878 ft 473 kts 13°
2026-05-05 03:34 47.02853 0.68654 35868 ft 471 kts 19°
2026-05-05 03:34 47.08733 0.72744 35868 ft 468 kts 33°
2026-05-05 03:35 47.14293 0.77730 35858 ft 468 kts 33°
2026-05-05 03:35 47.19827 0.82659 35851 ft 469 kts 33°
2026-05-05 03:36 47.25409 0.87634 35853 ft 469 kts 33°
2026-05-05 03:36 47.30986 0.92621 35853 ft 469 kts 33°
2026-05-05 03:37 47.36561 0.97645 35849 ft 469 kts 33°
2026-05-05 03:37 47.42090 1.02647 35852 ft 469 kts 33°
2026-05-05 03:38 47.47664 1.07679 35853 ft 469 kts 33°
2026-05-05 03:38 47.53267 1.12640 35856 ft 470 kts 31°
2026-05-05 03:39 47.59061 1.17169 35856 ft 471 kts 28°
2026-05-05 03:39 47.64869 1.21515 35853 ft 471 kts 29°
2026-05-05 03:40 47.70680 1.25995 35856 ft 471 kts 30°
2026-05-05 03:40 47.76457 1.30570 35852 ft 471 kts 30°
2026-05-05 03:41 47.82234 1.35152 35852 ft 471 kts 30°
2026-05-05 03:41 47.87981 1.39686 35851 ft 471 kts 30°
2026-05-05 03:42 47.93767 1.44274 35848 ft 471 kts 30°
2026-05-05 03:42 47.99544 1.48875 35850 ft 471 kts 30°
2026-05-05 03:43 48.05328 1.53486 35849 ft 471 kts 30°
2026-05-05 03:43 48.11073 1.58057 35847 ft 471 kts 30°
2026-05-05 03:44 48.16862 1.62677 35848 ft 472 kts 30°
2026-05-05 03:44 48.22647 1.67330 35849 ft 472 kts 30°
2026-05-05 03:45 48.28431 1.71993 35850 ft 472 kts 30°
2026-05-05 03:45 48.34213 1.76657 35848 ft 471 kts 30°
2026-05-05 03:46 48.39951 1.81299 35856 ft 472 kts 30°
2026-05-05 03:46 48.45726 1.85998 35860 ft 472 kts 30°
2026-05-05 03:47 48.51505 1.90698 35868 ft 472 kts 30°
2026-05-05 03:47 48.57290 1.95401 35872 ft 472 kts 30°
2026-05-05 03:48 48.63036 2.00086 35876 ft 472 kts 30°
2026-05-05 03:48 48.68404 2.04492 35876 ft 472 kts 32°
2026-05-05 03:49 48.71155 2.07365 35876 ft 469 kts 43°
2026-05-05 03:49 48.73463 2.10814 35874 ft 465 kts 53°
2026-05-05 03:49 48.76804 2.19038 35871 ft 456 kts 72°
2026-05-05 03:50 48.78625 2.28103 35869 ft 452 kts 79°
2026-05-05 03:50 48.80278 2.37299 35869 ft 452 kts 79°
2026-05-05 03:51 48.81911 2.46521 35872 ft 453 kts 79°
2026-05-05 03:51 48.83542 2.55759 35873 ft 453 kts 79°
2026-05-05 03:52 48.85162 2.64935 35894 ft 454 kts 79°
2026-05-05 03:52 48.86790 2.74193 35890 ft 454 kts 79°
2026-05-05 03:53 48.88405 2.83457 35889 ft 454 kts 79°
2026-05-05 03:53 48.90024 2.92744 35890 ft 455 kts 79°
2026-05-05 03:54 48.91628 3.01986 35886 ft 455 kts 79°
2026-05-05 03:54 48.93234 3.11293 35887 ft 456 kts 79°
2026-05-05 03:55 48.94829 3.20624 35887 ft 456 kts 79°
2026-05-05 03:55 48.96406 3.29974 35886 ft 456 kts 79°
2026-05-05 03:56 48.97974 3.39273 35887 ft 457 kts 79°
2026-05-05 03:56 48.99554 3.48645 35890 ft 457 kts 79°
2026-05-05 03:57 49.01126 3.58026 35891 ft 457 kts 79°
2026-05-05 03:57 49.02692 3.67415 35890 ft 458 kts 79°
2026-05-05 03:58 49.04249 3.76817 35898 ft 458 kts 80°
2026-05-05 03:58 49.05786 3.86165 35894 ft 458 kts 79°
2026-05-05 03:59 49.07331 3.95580 35895 ft 458 kts 80°
2026-05-05 03:59 49.08869 4.05016 35893 ft 458 kts 80°
2026-05-05 04:00 49.10399 4.14460 35893 ft 458 kts 80°
2026-05-05 04:00 49.11922 4.23908 35884 ft 459 kts 80°
2026-05-05 04:01 49.13428 4.33308 35892 ft 459 kts 80°
2026-05-05 04:01 49.15608 4.42532 35891 ft 464 kts 70°
2026-05-05 04:02 49.18088 4.51645 35893 ft 465 kts 71°
2026-05-05 04:02 49.20559 4.60773 35893 ft 465 kts 71°
2026-05-05 04:03 49.23000 4.69867 35892 ft 466 kts 71°
2026-05-05 04:03 49.25458 4.79041 35897 ft 466 kts 71°
2026-05-05 04:04 49.27925 4.88241 35894 ft 467 kts 71°
2026-05-05 04:04 49.30380 4.97452 35888 ft 467 kts 71°
2026-05-05 04:05 49.32811 5.06626 35892 ft 468 kts 71°
2026-05-05 04:05 49.35251 5.15885 35892 ft 469 kts 71°
2026-05-05 04:06 49.37683 5.25143 35894 ft 469 kts 71°
2026-05-05 04:06 49.40119 5.34454 35894 ft 470 kts 71°
2026-05-05 04:07 49.42548 5.43782 35893 ft 471 kts 71°
2026-05-05 04:07 49.44974 5.53128 35896 ft 471 kts 71°
2026-05-05 04:08 49.47398 5.62499 35897 ft 472 kts 71°
2026-05-05 04:08 49.49951 5.71725 35890 ft 474 kts 62°
2026-05-05 04:09 49.53950 5.79780 35885 ft 476 kts 43°
2026-05-05 04:09 49.59236 5.85847 35883 ft 469 kts 32°
2026-05-05 04:10 49.61931 5.88545 35865 ft 454 kts 32°
2026-05-05 04:10 49.64541 5.91174 35734 ft 442 kts 32°
2026-05-05 04:10 49.67094 5.93757 35511 ft 437 kts 32°
2026-05-05 04:10 49.69592 5.96280 35259 ft 433 kts 32°
2026-05-05 04:11 49.72110 5.98814 34997 ft 430 kts 31°
2026-05-05 04:11 49.74599 6.01319 34871 ft 426 kts 31°
2026-05-05 04:11 49.79580 6.06346 34965 ft 427 kts 31°
2026-05-05 04:12 49.84695 6.10904 34489 ft 419 kts 18°
2026-05-05 04:12 49.87450 6.12265 34108 ft 412 kts
2026-05-05 04:12 49.90210 6.12926 33721 ft 403 kts 358°
2026-05-05 04:13 49.92986 6.13010 33286 ft 397 kts 354°
2026-05-05 04:13 49.95741 6.13016 32947 ft 395 kts 354°
2026-05-05 04:13 49.98538 6.13028 32657 ft 413 kts 355°
2026-05-05 04:13 50.01518 6.13028 31788 ft 439 kts 355°
2026-05-05 04:14 50.04621 6.13032 31294 ft 451 kts 355°
2026-05-05 04:14 50.07772 6.13048 30745 ft 453 kts 355°
2026-05-05 04:14 50.10925 6.13075 30198 ft 453 kts 355°
2026-05-05 04:14 50.14083 6.13107 29591 ft 454 kts 355°
2026-05-05 04:15 50.17207 6.13137 29056 ft 455 kts 356°
2026-05-05 04:15 50.20378 6.13163 28501 ft 456 kts 356°
2026-05-05 04:15 50.23546 6.13185 27946 ft 456 kts 356°
2026-05-05 04:15 50.26725 6.13372 27408 ft 460 kts
2026-05-05 04:16 50.29869 6.14404 26852 ft 464 kts 15°
2026-05-05 04:16 50.32861 6.16349 26300 ft 468 kts 26°
2026-05-05 04:16 50.35627 6.19051 25756 ft 470 kts 32°
2026-05-05 04:16 50.38356 6.21873 25214 ft 470 kts 32°
2026-05-05 04:17 50.41082 6.24692 24684 ft 466 kts 32°
2026-05-05 04:17 50.43730 6.27422 24304 ft 456 kts 32°
2026-05-05 04:17 50.46327 6.30098 24176 ft 436 kts 32°
2026-05-05 04:17 50.48781 6.32631 24054 ft 409 kts 31°
2026-05-05 04:18 50.51109 6.34975 23935 ft 385 kts 30°
2026-05-05 04:18 50.53362 6.37103 23533 ft 379 kts 28°
2026-05-05 04:18 50.55680 6.39195 22673 ft 388 kts 27°
2026-05-05 04:18 50.58031 6.41284 22127 ft 387 kts 27°
2026-05-05 04:19 50.60368 6.43371 21671 ft 385 kts 27°
2026-05-05 04:19 50.62682 6.45466 21244 ft 382 kts 28°
2026-05-05 04:19 50.64971 6.47568 20815 ft 379 kts 28°
2026-05-05 04:19 50.67238 6.49669 20371 ft 377 kts 28°
2026-05-05 04:20 50.69494 6.51765 19614 ft 385 kts 28°
2026-05-05 04:20 50.71804 6.53912 19106 ft 385 kts 29°
2026-05-05 04:20 50.74193 6.56134 18667 ft 382 kts 29°
2026-05-05 04:20 50.76383 6.58174 18257 ft 380 kts 29°
2026-05-05 04:21 50.78651 6.60283 17729 ft 378 kts 29°
2026-05-05 04:21 50.80960 6.62360 16901 ft 384 kts 24°
2026-05-05 04:21 50.83470 6.63775 16407 ft 379 kts 11°
2026-05-05 04:21 50.85997 6.64415 16266 ft 356 kts
2026-05-05 04:22 50.88374 6.64935 15973 ft 339 kts
2026-05-05 04:22 50.90221 6.65342 15443 ft 336 kts
2026-05-05 04:22 50.92528 6.65847 14777 ft 333 kts
2026-05-05 04:22 50.94822 6.66338 14321 ft 333 kts
2026-05-05 04:23 50.97108 6.66826 13986 ft 330 kts
2026-05-05 04:23 50.99373 6.67310 13576 ft 326 kts
2026-05-05 04:23 51.01608 6.67779 12864 ft 323 kts
2026-05-05 04:23 51.03821 6.67808 12363 ft 312 kts 354°
2026-05-05 04:24 51.05960 6.67623 11849 ft 305 kts 355°
2026-05-05 04:24 51.08032 6.67461 11356 ft 300 kts 356°
2026-05-05 04:24 51.10107 6.67685 11116 ft 298 kts
2026-05-05 04:25 51.13972 6.69909 10520 ft 296 kts 25°
2026-05-05 04:25 51.15809 6.71350 10169 ft 293 kts 25°
2026-05-05 04:25 51.17620 6.72770 9748 ft 286 kts 25°
2026-05-05 04:25 51.19389 6.74152 9615 ft 279 kts 25°
2026-05-05 04:26 51.21125 6.75506 9483 ft 277 kts 25°
2026-05-05 04:26 51.22861 6.76861 9239 ft 278 kts 25°
2026-05-05 04:26 51.24602 6.78224 8855 ft 279 kts 25°
2026-05-05 04:26 51.26321 6.79573 8456 ft 280 kts 25°
2026-05-05 04:27 51.28083 6.80959 8048 ft 283 kts 25°
2026-05-05 04:27 51.29859 6.82358 7629 ft 287 kts 25°
2026-05-05 04:27 51.31654 6.83776 7197 ft 286 kts 25°
2026-05-05 04:27 51.33407 6.85158 6787 ft 276 kts 25°
2026-05-05 04:28 51.35091 6.86489 6402 ft 265 kts 25°
2026-05-05 04:28 51.36712 6.87772 6007 ft 255 kts 25°
2026-05-05 04:28 51.38267 6.89004 5638 ft 244 kts 25°
2026-05-05 04:28 51.39747 6.90173 5287 ft 238 kts 25°
2026-05-05 04:29 51.41224 6.91339 4946 ft 236 kts 26°
2026-05-05 04:29 51.42691 6.92500 4599 ft 236 kts 26°
2026-05-05 04:29 51.44163 6.93662 4278 ft 234 kts 26°
2026-05-05 04:29 51.45600 6.94797 4223 ft 231 kts 26°
2026-05-05 04:30 51.47034 6.95931 4124 ft 226 kts 26°
2026-05-05 04:30 51.48399 6.97085 4017 ft 220 kts 34°
2026-05-05 04:30 51.49538 6.98690 4002 ft 218 kts 50°
2026-05-05 04:30 51.50457 7.00629 4006 ft 219 kts 53°
2026-05-05 04:31 51.51353 7.02566 4010 ft 219 kts 53°
2026-05-05 04:31 51.52228 7.04557 4006 ft 218 kts 63°
2026-05-05 04:31 51.52506 7.06894 4008 ft 215 kts 100°
2026-05-05 04:31 51.51899 7.09041 4010 ft 213 kts 135°
2026-05-05 04:32 51.50656 7.10213 3920 ft 207 kts 171°
2026-05-05 04:32 51.49222 7.10380 3866 ft 207 kts 181°
2026-05-05 04:32 51.47783 7.10332 3819 ft 207 kts 183°
2026-05-05 04:32 51.46342 7.10251 3766 ft 207 kts 184°
2026-05-05 04:33 51.44945 7.09780 3704 ft 202 kts 205°
2026-05-05 04:33 51.43821 7.08594 3649 ft 195 kts 225°
2026-05-05 04:33 51.42970 7.06914 3599 ft 194 kts 233°
2026-05-05 04:33 51.42160 7.05187 3550 ft 194 kts 233°
2026-05-05 04:34 51.41352 7.03470 3518 ft 188 kts 233°
2026-05-05 04:34 51.40593 7.01858 3486 ft 178 kts 233°
2026-05-05 04:34 51.39859 7.00303 3427 ft 174 kts 233°
2026-05-05 04:34 51.39129 6.98755 3265 ft 174 kts 233°
2026-05-05 04:35 51.38402 6.97216 3064 ft 174 kts 233°
2026-05-05 04:35 51.37668 6.95662 2823 ft 176 kts 233°
2026-05-05 04:35 51.36947 6.94138 2598 ft 172 kts 233°
2026-05-05 04:35 51.36238 6.92637 2372 ft 166 kts 233°
2026-05-05 04:36 51.35556 6.91197 2149 ft 160 kts 233°
2026-05-05 04:36 51.34885 6.89780 1944 ft 159 kts 233°
2026-05-05 04:36 51.34219 6.88374 1733 ft 158 kts 233°
2026-05-05 04:36 51.33564 6.86993 1533 ft 149 kts 233°
2026-05-05 04:37 51.32959 6.85717 1322 ft 140 kts 233°
2026-05-05 04:37 51.32376 6.84489 1134 ft 139 kts 233°
2026-05-05 04:37 51.31794 6.83262 945 ft 139 kts 233°
2026-05-05 04:37 51.31208 6.82029 767 ft 140 kts 233°
2026-05-05 04:38 51.30626 6.80804 585 ft 141 kts 233°
2026-05-05 04:38 51.30031 6.79553 397 ft 142 kts 233°
2026-05-05 04:38 51.29435 6.78299 209 ft 142 kts 233°
2026-05-05 04:38 51.28870 6.77104 129 ft 115 kts 233°
2026-05-05 04:39 51.28514 6.76359 128 ft 58 kts 232°
2026-05-05 04:39 51.28349 6.76032 129 ft 18 kts 215°
2026-05-05 04:39 51.28321 6.76023 128 ft 1 kts 181°
2026-05-05 04:39 51.28262 6.76038 128 ft 13 kts 165°
2026-05-05 04:40 51.28204 6.76076 126 ft 6 kts 146°
2026-05-05 04:40 51.28192 6.76145 127 ft 8 kts 72°
2026-05-05 04:40 51.28191 6.76245 126 ft 11 kts 135°
2026-05-05 04:40 51.28141 6.76327 130 ft 10 kts 120°
2026-05-05 04:41 51.28117 6.76421 130 ft 9 kts 102°
2026-05-05 04:41 51.28110 6.76522 130 ft 8 kts 96°
2026-05-05 04:41 51.28109 6.76540 130 ft 2 kts 96°
2026-05-05 04:41 51.28108 6.76546 129 ft 0 kts 96°